Coleville, CA

2:00 PM PST on February 08, 2016 (GMT -0800)
MCMWTC BRIDGEPORT, CA

Weather History for KBAN - April, 2014

Change the Weather History Date:

Saturday, April 26, 2014

  Actual Average (KTVL) Record (KTVL)
Temperature  
Mean Temperature 33 °F 43 °F  
Max Temperature 45 °F 57 °F 71 °F (1992)
Min Temperature 21 °F 28 °F 7 °F (1975)
Degree Days  
Heating Degree Days 32 22  
Month to date heating degree days 652  
Since 1 July heating degree days 6804  
Cooling Degree Days 0 0  
Month to date cooling degree days 0  
Year to date cooling degree days 0  
Moisture  
Dew Point 17 °F    
Average Humidity 54    
Maximum Humidity 81    
Minimum Humidity 32    
Precipitation  
Precipitation 0.00 in - 1.13 in (1952)
Month to date precipitation  
Year to date precipitation  
Sea Level Pressure  
Sea Level Pressure 29.79 in    
Wind  
Wind Speed 7 mph (SW)    
Max Wind Speed 21 mph    
Max Gust Speed 31 mph    
Visibility 10 miles    
Events      
T = Trace of Precipitation, MM = Missing Value Source: NWS Daily Summary

Daily Weather History Graph

Daily Weather History Graph

Search for Another Location

Airport or City:

Trip Planner

Search our weather history database for the weather conditions in past years. The results will help you decide how hot, cold, wet, or windy it might be!

Date:

Astronomy

Apr. 26, 2014 Rise Set
Actual Time 6:07 AM PDT 7:45 PM PDT
Civil Twilight 5:39 AM PDT 8:13 PM PDT
Nautical Twilight 5:05 AM PDT 8:47 PM PDT
Astronomical Twilight 4:29 AM PDT 9:23 PM PDT
Moon 4:32 AM PDT (4/26) 5:20 PM PDT (4/26)
Length of Visible Light 14h 34m
Length of Day
13h 37m
Waning Crescent, 7% of the Moon is Illuminated
Apr 26
Waning Crescent
Apr 28
New
May 6
First Quarter
May 14
Full
May 21
Last Quarter

Hourly Weather History & Observations

Time (PDT) Temp. Windchill Dew Point Humidity Pressure Visibility Wind Dir Wind Speed Gust Speed Precip Events Conditions
12:52 AM 28.0 °F 21.7 °F 19.0 °F 69% 29.63 in 10.0 mi NW 5.8 mph - N/A   Overcast
1:52 AM 26.1 °F 18.4 °F 17.1 °F 69% 29.66 in 10.0 mi NW 6.9 mph - N/A   Clear
2:52 AM 23.0 °F - 16.0 °F 74% 29.69 in 10.0 mi Calm Calm - N/A   Clear
3:52 AM 21.0 °F - 15.1 °F 78% 29.70 in 10.0 mi Calm Calm - N/A   Partly Cloudy
4:52 AM 21.9 °F - 16.0 °F 78% 29.69 in 10.0 mi Calm Calm - N/A   Overcast
5:52 AM 21.0 °F - 16.0 °F 81% 29.75 in 10.0 mi Calm Calm - N/A   Overcast
6:52 AM 21.9 °F - 16.0 °F 78% 29.75 in 10.0 mi Calm Calm - N/A   Overcast
7:52 AM 24.1 °F - 17.1 °F 75% 29.77 in 10.0 mi Calm Calm - N/A   Overcast
8:52 AM 28.9 °F - 18.0 °F 64% 29.78 in 10.0 mi Calm Calm - N/A   Overcast
9:52 AM 34.0 °F - 21.9 °F 61% 29.76 in 10.0 mi Calm Calm - N/A   Overcast
10:52 AM 37.9 °F 33.5 °F 19.9 °F 48% 29.75 in 10.0 mi Variable 5.8 mph - N/A   Mostly Cloudy
11:52 AM 42.1 °F 36.1 °F 14.0 °F 32% 29.76 in 10.0 mi SW 10.4 mph 20.7 mph N/A   Clear
12:52 PM 45.0 °F 37.6 °F 19.0 °F 36% 29.75 in 10.0 mi SW 17.3 mph 27.6 mph N/A   Partly Cloudy
1:52 PM 44.1 °F 37.4 °F 19.0 °F 37% 29.80 in 10.0 mi West 13.8 mph 28.8 mph N/A   Mostly Cloudy
2:52 PM 43.0 °F 35.4 °F 16.0 °F 34% 29.83 in 10.0 mi SSW 16.1 mph 28.8 mph N/A   Partly Cloudy
3:52 PM 43.0 °F 34.8 °F 16.0 °F 34% 29.84 in 10.0 mi SSW 18.4 mph 25.3 mph N/A   Overcast
4:52 PM 41.0 °F 31.6 °F 17.1 °F 38% 29.85 in 10.0 mi SW 20.7 mph 31.1 mph N/A   Overcast
5:52 PM 41.0 °F 33.1 °F 18.0 °F 40% 29.88 in 10.0 mi SSW 15.0 mph 28.8 mph N/A   Overcast
6:52 PM 37.0 °F 27.0 °F 16.0 °F 42% 29.88 in 10.0 mi SW 18.4 mph 26.5 mph N/A   Overcast
7:52 PM 36.0 °F 25.6 °F 16.0 °F 44% 29.88 in 10.0 mi SSW 18.4 mph 31.1 mph N/A   Overcast
8:52 PM 35.1 °F 25.5 °F 17.1 °F 48% 29.88 in 10.0 mi SSW 15.0 mph 27.6 mph N/A   Mostly Cloudy
9:52 PM 35.1 °F 24.1 °F 18.0 °F 50% 29.87 in 10.0 mi South 19.6 mph 27.6 mph N/A   Overcast
10:52 PM 35.1 °F 25.2 °F 17.1 °F 48% 29.87 in 10.0 mi SSW 16.1 mph 25.3 mph N/A   Scattered Clouds
11:52 PM 34.0 °F 26.6 °F 17.1 °F 50% 29.88 in 10.0 mi West 9.2 mph 18.4 mph N/A   Clear